Theta_e
322 319 319 321 319 319 319 320 325 324 325 326 329 330 333 334 337 343 342 346 346 335
320 319 318 319 320 318 320 319 320 321 321 322 323 324 329 326 335 341 343 340 344 340
317 318 318 317 317 318 318 318 318 318 319 319 320 321 323 324 329 334 335 334 337 338
315 315 315 315 315 315 315 315 314 314 315 315 316 318 320 321 321 324 332 334 336 337
314 314 313 313 313 314 313 313 312 312 312 311 312 314 314 313 316 319 322 328 331 332
312 312 312 311 312 311 311 310 310 309 308 308 309 309 310 311 312 315 318 322 326 329
311 311 311 311 310 309 307 306 306 306 306 306 305 305 306 306 307 310 313 318 323 325
310 310 310 307 306 306 307 307 306 305 305 305 305 303 304 305 306 307 308 309 312 320
308 308 307 307 306 306 307 306 306 306 306 305 303 301 301 303 302 303 304 305 307 311
308 308 306 306 306 305 306 306 305 307 304 306 304 300 299 300 302 301 303 304 304 307
307 306 307 307 307 305 304 303 305 306 306 305 304 300 298 299 301 301 302 303 305 306
305 305 307 305 304 305 303 301 303 306 307 305 305 299 297 299 302 301 303 306 308 309
303 304 302 302 302 303 301 302 303 304 305 304 303 300 297 298 302 301 303 304 306 304
304 304 303 303 304 302 301 303 304 304 303 305 305 305 298 297 304 303 303 306 308 315
Wind_Speed
7 6 7 7 8 8 9 10 11 11 12 14 13 13 14 13 14 15 14 18 16 15
9 10 10 12 11 10 12 12 14 15 16 16 17 17 15 14 16 16 16 17 15 15
11 10 11 11 12 12 13 15 15 16 16 16 17 18 17 16 17 18 16 16 18 16
11 11 12 12 12 12 13 14 15 16 17 17 18 17 17 18 20 22 19 19 20 20
10 10 11 12 13 14 15 15 16 16 17 17 17 17 18 19 21 22 21 21 21 22
11 11 13 14 14 15 16 16 17 17 18 18 17 15 16 19 21 20 23 22 21 21
12 13 13 14 15 16 16 16 17 16 17 17 17 16 18 18 18 20 18 19 22 21
12 13 13 15 15 16 17 16 16 15 15 15 14 12 15 16 17 18 17 16 19 21
12 13 14 14 16 15 17 18 16 18 19 17 12 17 18 19 16 19 18 17 18 19
14 14 14 15 16 17 17 18 19 18 17 19 14 19 19 21 16 15 16 16 15 16
15 15 16 16 16 16 16 16 17 17 18 17 15 17 18 21 18 14 16 17 18 19
15 17 17 17 17 17 15 15 15 17 18 17 16 18 19 18 14 13 16 18 19 19
16 16 16 15 16 15 13 14 12 16 16 19 16 20 18 18 11 13 13 14 18 27
15 16 13 16 15 13 14 13 14 15 14 17 16 18 18 19 13 11 11 11 12 14
Wind_Direction
340 330 307 315 320 303 304 293 302 292 284 283 281 277 273 266 258 253 244 241 242 251
332 331 323 315 309 300 303 300 298 303 299 289 281 278 274 264 262 256 249 247 240 242
327 320 316 308 305 304 302 301 299 294 289 287 284 280 275 269 261 256 254 247 244 234
319 318 315 311 307 302 298 294 292 292 294 287 282 282 278 273 273 272 269 251 250 244
311 310 305 303 300 300 298 296 293 288 283 283 282 282 280 276 279 273 267 258 251 248
312 311 310 307 307 304 300 299 299 298 295 296 295 296 291 284 279 271 273 267 268 253
310 311 311 310 308 308 304 294 290 284 282 283 278 279 282 281 275 279 277 278 264 259
313 309 311 303 291 299 295 295 294 283 276 273 274 269 273 281 286 281 277 280 278 273
313 305 298 312 302 301 304 300 289 287 290 284 270 265 262 270 277 278 273 271 272 269
302 312 315 307 303 301 303 304 299 294 287 282 272 260 254 255 266 267 264 266 271 275
307 314 304 305 309 310 303 298 291 298 289 289 281 264 255 254 264 262 259 257 258 257
318 308 307 313 310 304 298 290 294 293 292 291 284 270 254 255 264 257 256 254 259 251
307 307 308 309 297 294 287 282 292 295 297 294 282 277 259 252 253 253 253 258 257 248
306 311 309 304 299 298 291 292 294 301 291 292 288 286 266 249 249 248 257 259 262 271